KAZSAT-3

Last updated on Sun Jun 21 2026 00:03:06 GMT+0000 (Coordinated Universal Time)

1 39728U 14023B 26170.98942322 .00000055 00000+0 00000+0 0 9992 2 39728 0.0153 31.8994 0000335 33.0502 257.9533 1.00274079 42480
UTC large
Height (km)
Speed (km/s)
/
Latitude / Longitude
Inclination (degrees)
Orbital Period (minutes)
Azimuth
Elevation
Range (km)
Doppler Factor

Next 0 passes for location: London (51.5072 / 0.1276)

No passes found over London.
KAZSAT-3